sat.trackr.live / text

‹ back to catalog

STARLINK-35138

NORAD 65420 · 2025-192S

PAYLOAD ACTIVE UNKNOWN

§ Identity

Operator
Country
US
Launch date
2025-08-31
Launch site
AFETR
Launch vehicle
Mass (kg)
RCS (m²)

Purposes: comms

External: N2YO · Heavens-Above · Gunter

§ Orbital elements

Epoch: 2026-09-20T13:40:56.424000Z

Period
94.01 min
Inclination
53.1593°
Eccentricity
0.0001347
Mean motion
15.31712412 rev/d
Perigee alt
469.8 km
Apogee alt
471.6 km
Semi-major
6,848.8 km
B*
6.7516e-4
RAAN
45.5721°
Arg perigee
92.1745°
Mean anomaly
267.9411°
Rev number
5,924

§ Raw data

STARLINK-351381 65420U 25192S   26263.57009750  .00020652  00000+0  67516-3 0  99902 65420  53.1593  45.5721 0001347  92.1745 267.9411 15.31712412 59249

JSON: /api/v1/satellites/65420 · /tle

For live sub-satellite position, see the globe view (requires WebGL).

§ Visibility from observer

Set your observer location to see the next 7 days of passes ≥ 10°. The values pass through the URL so the page stays shareable.

No JS? Fill the form by hand. The geolocation button needs JavaScript.